Year,Month,Day,Hour,Minute,Value (Times are PST for windspeed in km/hr)
2008,06,08,00,00,8.30
2008,06,08,00,01,7.00
2008,06,08,00,02,4.10
2008,06,08,00,03,7.10
2008,06,08,00,04,8.10
2008,06,08,00,05,7.00
2008,06,08,00,06,6.70
2008,06,08,00,07,6.70
2008,06,08,00,08,9.40
2008,06,08,00,09,9.50
2008,06,08,00,10,13.80
2008,06,08,00,11,10.50
2008,06,08,00,12,11.40
2008,06,08,00,13,12.60
2008,06,08,00,14,8.10
2008,06,08,00,15,6.50
2008,06,08,00,16,7.40
2008,06,08,00,17,9.70
2008,06,08,00,18,8.90
2008,06,08,00,19,4.80
2008,06,08,00,20,7.80
2008,06,08,00,21,7.20
2008,06,08,00,22,13.90
2008,06,08,00,23,13.70
2008,06,08,00,24,9.70
2008,06,08,00,25,8.20
2008,06,08,00,26,8.90
2008,06,08,00,27,9.60
2008,06,08,00,28,8.40
2008,06,08,00,29,8.80
2008,06,08,00,30,7.30
2008,06,08,00,31,9.40
2008,06,08,00,32,11.60
2008,06,08,00,33,6.10
2008,06,08,00,34,6.60
2008,06,08,00,35,5.50
2008,06,08,00,36,5.10
2008,06,08,00,37,9.30
2008,06,08,00,38,6.60
2008,06,08,00,39,5.80
2008,06,08,00,40,7.80
2008,06,08,00,41,7.50
2008,06,08,00,42,6.40
2008,06,08,00,43,6.00
2008,06,08,00,44,9.30
2008,06,08,00,45,7.90
2008,06,08,00,46,4.70
2008,06,08,00,47,6.30
2008,06,08,00,48,6.00
2008,06,08,00,49,7.50
2008,06,08,00,50,6.70
2008,06,08,00,51,5.50
2008,06,08,00,52,8.10
2008,06,08,00,53,7.70
2008,06,08,00,54,5.60
2008,06,08,00,55,7.60
2008,06,08,00,56,5.30
2008,06,08,00,57,10.60
2008,06,08,00,58,6.70
2008,06,08,00,59,5.90
2008,06,08,01,00,7.30
2008,06,08,01,01,6.10
2008,06,08,01,02,5.00
2008,06,08,01,03,8.10
2008,06,08,01,04,9.80
2008,06,08,01,05,9.10
2008,06,08,01,06,5.70
2008,06,08,01,07,5.20
2008,06,08,01,08,6.40
2008,06,08,01,09,5.00
2008,06,08,01,10,4.10
2008,06,08,01,11,9.30
2008,06,08,01,12,7.30
2008,06,08,01,13,8.00
2008,06,08,01,14,5.20
2008,06,08,01,15,4.70
2008,06,08,01,16,7.20
2008,06,08,01,17,8.00
2008,06,08,01,18,7.50
2008,06,08,01,19,6.20
2008,06,08,01,20,8.30
2008,06,08,01,21,5.60
2008,06,08,01,22,10.20
2008,06,08,01,23,6.50
2008,06,08,01,24,7.90
2008,06,08,01,25,8.90
2008,06,08,01,26,6.90
2008,06,08,01,27,4.40
2008,06,08,01,28,7.40
2008,06,08,01,29,6.70
2008,06,08,01,30,7.10
2008,06,08,01,31,2.90
2008,06,08,01,32,5.40
2008,06,08,01,33,5.40
2008,06,08,01,34,4.50
2008,06,08,01,35,6.10
2008,06,08,01,36,5.90
2008,06,08,01,37,4.20
2008,06,08,01,38,4.10
2008,06,08,01,39,4.30
2008,06,08,01,40,3.20
2008,06,08,01,41,4.20
2008,06,08,01,42,5.10
2008,06,08,01,43,4.80
2008,06,08,01,44,5.70
2008,06,08,01,45,5.70
2008,06,08,01,46,5.40
2008,06,08,01,47,3.20
2008,06,08,01,48,3.80
2008,06,08,01,49,5.30
2008,06,08,01,50,4.60
2008,06,08,01,51,6.70
2008,06,08,01,52,6.10
2008,06,08,01,53,4.20
2008,06,08,01,54,5.50
2008,06,08,01,55,2.30
2008,06,08,01,56,3.50
2008,06,08,01,57,4.20
2008,06,08,01,58,4.70
2008,06,08,01,59,5.00
2008,06,08,02,00,6.10
2008,06,08,02,01,6.70
2008,06,08,02,02,5.60
2008,06,08,02,03,6.60
2008,06,08,02,04,5.00
2008,06,08,02,05,5.40
2008,06,08,02,06,6.30
2008,06,08,02,07,9.90
2008,06,08,02,08,7.20
2008,06,08,02,09,8.30
2008,06,08,02,10,5.10
2008,06,08,02,11,6.90
2008,06,08,02,12,6.40
2008,06,08,02,13,5.50
2008,06,08,02,14,6.60
2008,06,08,02,15,7.50
2008,06,08,02,16,5.00
2008,06,08,02,17,6.00
2008,06,08,02,18,3.80
2008,06,08,02,19,2.60
2008,06,08,02,20,5.20
2008,06,08,02,21,8.70
2008,06,08,02,22,4.30
2008,06,08,02,23,5.60
2008,06,08,02,24,7.60
2008,06,08,02,25,3.50
2008,06,08,02,26,4.70
2008,06,08,02,27,3.10
2008,06,08,02,28,6.00
2008,06,08,02,29,7.20
2008,06,08,02,30,4.60
2008,06,08,02,31,1.50
2008,06,08,02,32,8.70
2008,06,08,02,33,3.80
2008,06,08,02,34,3.50
2008,06,08,02,35,4.60
2008,06,08,02,36,4.00
2008,06,08,02,37,3.60
2008,06,08,02,38,6.20
2008,06,08,02,39,6.20
2008,06,08,02,40,8.30
2008,06,08,02,41,6.80
2008,06,08,02,42,3.50
2008,06,08,02,43,7.70
2008,06,08,02,44,7.00
2008,06,08,02,45,7.60
2008,06,08,02,46,9.30
2008,06,08,02,47,8.00
2008,06,08,02,48,6.80
2008,06,08,02,49,6.00
2008,06,08,02,50,6.40
2008,06,08,02,51,7.20
2008,06,08,02,52,7.90
2008,06,08,02,53,6.40
2008,06,08,02,54,4.20
2008,06,08,02,55,3.60
2008,06,08,02,56,5.70
2008,06,08,02,57,6.30
2008,06,08,02,58,8.50
2008,06,08,02,59,10.60
2008,06,08,03,00,10.00
2008,06,08,03,01,10.00
2008,06,08,03,02,7.80
2008,06,08,03,03,8.00
2008,06,08,03,04,7.70
2008,06,08,03,05,4.30
2008,06,08,03,06,3.20
2008,06,08,03,07,3.20
2008,06,08,03,08,3.20
2008,06,08,03,09,3.20
2008,06,08,03,10,3.20
2008,06,08,03,11,3.20
2008,06,08,03,12,3.20
2008,06,08,03,13,3.20
2008,06,08,03,14,3.20
2008,06,08,08,54,4.80
2008,06,08,08,55,2.40
2008,06,08,08,56,3.90
2008,06,08,08,57,3.00
2008,06,08,08,58,5.00
2008,06,08,08,59,3.70
2008,06,08,09,00,9.70
2008,06,08,09,01,5.20
2008,06,08,09,02,4.20
2008,06,08,09,03,2.20
2008,06,08,09,04,8.10
2008,06,08,09,05,3.60
2008,06,08,09,06,4.30
2008,06,08,09,07,4.60
2008,06,08,09,08,3.80
2008,06,08,09,09,6.60
2008,06,08,09,10,9.00
2008,06,08,09,11,7.10
2008,06,08,09,12,5.50
2008,06,08,09,13,4.60
2008,06,08,09,14,7.50
2008,06,08,09,15,5.00
2008,06,08,09,16,5.50
2008,06,08,09,17,4.50
2008,06,08,09,18,1.00
2008,06,08,09,19,9.60
2008,06,08,09,20,9.80
2008,06,08,09,21,6.90
2008,06,08,09,22,1.50
2008,06,08,09,23,4.90
2008,06,08,09,24,6.70
2008,06,08,09,25,6.80
2008,06,08,09,26,4.10
2008,06,08,09,27,6.30
2008,06,08,09,28,7.30
2008,06,08,09,29,14.30
2008,06,08,09,30,6.80
2008,06,08,09,31,5.60
2008,06,08,09,32,2.10
2008,06,08,09,33,4.10
2008,06,08,09,34,3.90
2008,06,08,09,35,2.30
2008,06,08,09,36,7.60
2008,06,08,09,37,5.20
2008,06,08,09,38,5.00
2008,06,08,09,39,8.70
2008,06,08,09,40,7.00
2008,06,08,09,41,8.20
2008,06,08,09,42,5.30
2008,06,08,09,43,10.10
2008,06,08,09,44,9.90
2008,06,08,09,45,10.50
2008,06,08,09,46,8.20
2008,06,08,09,47,7.40
2008,06,08,09,48,4.20
2008,06,08,09,49,6.30
2008,06,08,09,50,7.00
2008,06,08,09,51,8.50
2008,06,08,09,52,8.60
2008,06,08,09,53,9.80
2008,06,08,09,54,5.10
2008,06,08,09,55,5.30
2008,06,08,09,56,3.00
2008,06,08,09,57,7.60
2008,06,08,09,58,7.80
2008,06,08,09,59,8.00
2008,06,08,10,00,3.70
2008,06,08,10,01,7.30
2008,06,08,10,02,5.50
2008,06,08,10,03,8.80
2008,06,08,10,04,8.00
2008,06,08,10,05,9.40
2008,06,08,10,06,7.20
2008,06,08,10,07,6.60
2008,06,08,10,08,6.10
2008,06,08,10,09,8.60
2008,06,08,10,10,8.80
2008,06,08,10,11,5.50
2008,06,08,10,12,10.60
2008,06,08,10,13,7.90
2008,06,08,10,14,8.30
2008,06,08,10,15,7.20
2008,06,08,10,16,8.00
2008,06,08,10,17,6.20
2008,06,08,10,18,8.70
2008,06,08,10,19,7.90
2008,06,08,10,20,5.20
2008,06,08,10,21,5.10
2008,06,08,10,22,5.30
2008,06,08,10,23,8.60
2008,06,08,10,24,11.80
2008,06,08,10,25,8.00
2008,06,08,10,26,7.80
2008,06,08,10,27,5.50
2008,06,08,10,28,1.70
2008,06,08,10,29,3.20
2008,06,08,10,30,2.70
2008,06,08,10,31,10.80
2008,06,08,10,32,7.90
2008,06,08,10,33,6.70
2008,06,08,10,34,6.30
2008,06,08,10,35,6.10
2008,06,08,10,36,6.70
2008,06,08,10,37,5.90
2008,06,08,10,38,11.40
2008,06,08,10,39,9.10
2008,06,08,10,40,4.20
2008,06,08,10,41,8.30
2008,06,08,10,42,7.00
2008,06,08,10,43,6.00
2008,06,08,10,44,9.70
2008,06,08,10,45,7.60
2008,06,08,10,46,7.60
2008,06,08,10,47,9.60
2008,06,08,10,48,7.30
2008,06,08,10,49,9.10
2008,06,08,10,50,8.70
2008,06,08,10,51,7.30
2008,06,08,10,52,6.00
2008,06,08,10,53,4.40
2008,06,08,10,54,7.50
2008,06,08,10,55,7.60
2008,06,08,10,56,5.40
2008,06,08,10,57,5.60
2008,06,08,10,58,4.10
2008,06,08,10,59,5.60
2008,06,08,11,00,4.40
2008,06,08,11,01,3.60
2008,06,08,11,02,6.40
2008,06,08,11,03,5.60
2008,06,08,11,04,8.60
2008,06,08,11,05,1.40
2008,06,08,11,06,4.10
2008,06,08,11,07,5.40
2008,06,08,11,08,3.90
2008,06,08,11,09,1.50
2008,06,08,11,10,2.10
2008,06,08,11,11,9.50
2008,06,08,11,12,11.70
2008,06,08,11,13,9.70
2008,06,08,11,14,8.20
2008,06,08,11,15,6.00
2008,06,08,11,16,5.70
2008,06,08,11,17,5.40
2008,06,08,11,18,4.90
2008,06,08,11,19,6.80
2008,06,08,11,20,11.30
2008,06,08,11,21,2.90
2008,06,08,11,22,7.30
2008,06,08,11,23,6.20
2008,06,08,11,24,7.90
2008,06,08,11,25,6.20
2008,06,08,11,26,9.60
2008,06,08,11,27,7.10
2008,06,08,11,28,6.50
2008,06,08,11,29,5.90
2008,06,08,11,30,4.90
2008,06,08,11,31,1.60
2008,06,08,11,32,3.50
2008,06,08,11,33,8.10
2008,06,08,11,34,7.20
2008,06,08,11,35,8.20
2008,06,08,11,36,8.50
2008,06,08,11,37,11.40
2008,06,08,11,38,7.10
2008,06,08,11,39,5.00
2008,06,08,11,40,3.80
2008,06,08,11,41,4.10
2008,06,08,11,42,9.30
2008,06,08,11,43,8.60
2008,06,08,11,44,10.20
2008,06,08,11,45,8.90
2008,06,08,11,46,6.90
2008,06,08,11,47,2.70
2008,06,08,11,48,5.70
2008,06,08,11,49,4.50
2008,06,08,11,50,7.60
2008,06,08,11,51,5.60
2008,06,08,11,52,2.40
2008,06,08,11,53,3.20
2008,06,08,11,54,8.10
2008,06,08,11,55,3.30
2008,06,08,11,56,7.20
2008,06,08,11,57,5.70
2008,06,08,11,58,6.00
2008,06,08,11,59,4.70
2008,06,08,12,00,4.50
2008,06,08,12,01,2.50
2008,06,08,12,02,0.90
2008,06,08,12,03,1.60
2008,06,08,12,04,3.60
2008,06,08,12,05,4.40
2008,06,08,12,06,1.90
2008,06,08,12,07,4.30
2008,06,08,12,08,4.60
2008,06,08,12,09,5.80
2008,06,08,12,10,9.70
2008,06,08,12,11,4.30
2008,06,08,12,12,3.70
2008,06,08,12,13,3.10
2008,06,08,12,14,2.10
2008,06,08,12,15,2.40
2008,06,08,12,16,4.80
2008,06,08,12,17,3.00
2008,06,08,12,18,9.00
2008,06,08,12,19,6.70
2008,06,08,12,20,3.50
2008,06,08,12,21,1.60
2008,06,08,12,22,3.80
2008,06,08,12,23,5.30
2008,06,08,12,24,6.10
2008,06,08,12,25,2.00
2008,06,08,12,26,4.00
2008,06,08,12,27,11.00
2008,06,08,12,28,2.50
2008,06,08,12,29,1.90
2008,06,08,12,30,4.00
2008,06,08,12,31,3.50
2008,06,08,12,32,1.80
2008,06,08,12,33,4.20
2008,06,08,12,34,2.80
2008,06,08,12,35,5.70
2008,06,08,12,36,9.60
2008,06,08,12,37,4.70
2008,06,08,12,38,5.60
2008,06,08,12,39,4.40
2008,06,08,12,40,3.70
2008,06,08,12,41,2.40
2008,06,08,12,42,6.50
2008,06,08,12,43,3.70
2008,06,08,12,44,5.50
2008,06,08,12,45,8.70
2008,06,08,12,46,2.40
2008,06,08,12,47,6.20
2008,06,08,12,48,6.40
2008,06,08,12,49,5.00
2008,06,08,12,50,2.50
2008,06,08,12,51,7.20
2008,06,08,12,52,6.70
2008,06,08,12,53,5.50
2008,06,08,12,54,3.10
2008,06,08,12,55,12.10
2008,06,08,12,56,7.80
2008,06,08,12,57,6.20
2008,06,08,12,58,9.70
2008,06,08,12,59,8.20
2008,06,08,13,00,2.60
2008,06,08,13,01,6.50
2008,06,08,13,02,5.00
2008,06,08,13,03,5.10
2008,06,08,13,04,7.40
2008,06,08,13,05,4.70
2008,06,08,13,06,5.70
2008,06,08,13,07,1.90
2008,06,08,13,08,8.00
2008,06,08,13,09,6.40
2008,06,08,13,10,6.20
2008,06,08,13,11,9.20
2008,06,08,13,12,5.70
2008,06,08,13,13,5.20
2008,06,08,13,14,8.50
2008,06,08,13,15,11.40
2008,06,08,13,16,6.50
2008,06,08,13,17,0.80
2008,06,08,13,18,4.80
2008,06,08,13,19,2.60
2008,06,08,13,20,3.20
2008,06,08,13,21,5.20
2008,06,08,13,22,6.30
2008,06,08,13,23,8.80
2008,06,08,13,24,8.10
2008,06,08,13,25,7.70
2008,06,08,13,26,7.00
2008,06,08,13,27,8.20
2008,06,08,13,28,8.70
2008,06,08,13,29,4.90
2008,06,08,13,30,7.10
2008,06,08,13,31,4.90
2008,06,08,13,32,4.00
2008,06,08,13,33,8.20
2008,06,08,13,34,8.60
2008,06,08,13,35,4.50
2008,06,08,13,36,6.40
2008,06,08,13,37,7.80
2008,06,08,13,38,5.40
2008,06,08,13,39,4.70
2008,06,08,13,40,4.10
2008,06,08,13,41,5.90
2008,06,08,13,42,5.40
2008,06,08,13,43,7.30
2008,06,08,13,44,1.80
2008,06,08,13,45,2.70
2008,06,08,13,46,6.40
2008,06,08,13,47,8.10
2008,06,08,13,48,6.50
2008,06,08,13,49,6.70
2008,06,08,13,50,5.40
2008,06,08,13,51,7.60
2008,06,08,13,52,7.60
2008,06,08,13,53,5.30
2008,06,08,13,54,6.80
2008,06,08,13,55,10.60
2008,06,08,13,56,8.70
2008,06,08,13,57,11.10
2008,06,08,13,58,5.30
2008,06,08,13,59,5.80
2008,06,08,14,00,2.40
2008,06,08,14,01,2.60
2008,06,08,14,02,4.00
2008,06,08,14,03,8.10
2008,06,08,14,04,11.90
2008,06,08,14,05,9.70
2008,06,08,14,06,8.20
2008,06,08,14,07,5.00
2008,06,08,14,08,8.30
2008,06,08,14,09,10.20
2008,06,08,14,10,12.60
2008,06,08,14,11,6.30
2008,06,08,14,12,7.90
2008,06,08,14,13,15.40
2008,06,08,14,14,9.30
2008,06,08,14,15,7.60
2008,06,08,14,16,2.80
2008,06,08,14,17,1.20
2008,06,08,14,18,5.50
2008,06,08,14,19,6.70
2008,06,08,14,20,5.10
2008,06,08,14,21,4.60
2008,06,08,14,22,5.50
2008,06,08,14,23,1.90
2008,06,08,14,24,0.30
2008,06,08,14,25,2.80
2008,06,08,14,26,2.90
2008,06,08,14,27,6.50
2008,06,08,14,28,4.90
2008,06,08,14,29,4.80
2008,06,08,14,30,2.40
2008,06,08,14,31,5.10
2008,06,08,14,32,4.10
2008,06,08,14,33,3.60
2008,06,08,14,34,0.90
2008,06,08,14,35,5.80
2008,06,08,14,36,2.10
2008,06,08,14,37,3.20
2008,06,08,14,38,5.40
2008,06,08,14,39,4.50
2008,06,08,14,40,2.30
2008,06,08,14,41,5.90
2008,06,08,14,42,5.10
2008,06,08,14,43,5.20
2008,06,08,14,44,6.80
2008,06,08,14,45,8.40
2008,06,08,14,46,6.70
2008,06,08,14,47,3.20
2008,06,08,14,48,4.10
2008,06,08,14,49,1.70
2008,06,08,14,50,5.00
2008,06,08,14,51,7.00
2008,06,08,14,52,9.00
2008,06,08,14,53,9.30
2008,06,08,14,54,8.70
2008,06,08,14,55,6.80
2008,06,08,14,56,1.90
2008,06,08,14,57,5.70
2008,06,08,14,58,2.20
2008,06,08,14,59,2.00
2008,06,08,15,00,9.50
2008,06,08,15,01,7.50
2008,06,08,15,02,3.10
2008,06,08,15,03,7.40
2008,06,08,15,04,6.10
2008,06,08,15,05,7.20
2008,06,08,15,06,4.20
2008,06,08,15,07,4.90
2008,06,08,15,08,5.90
2008,06,08,15,09,4.30
2008,06,08,15,10,2.80
2008,06,08,15,11,9.90
2008,06,08,15,12,6.30
2008,06,08,15,13,7.60
2008,06,08,15,14,10.30
2008,06,08,15,15,7.30
2008,06,08,15,16,6.50
2008,06,08,15,17,7.10
2008,06,08,15,18,4.80
2008,06,08,15,19,5.80
2008,06,08,15,20,2.20
2008,06,08,15,21,4.30
2008,06,08,15,22,9.20
2008,06,08,15,23,3.40
2008,06,08,15,24,9.50
2008,06,08,15,25,5.70
2008,06,08,15,26,9.60
2008,06,08,15,27,6.60
2008,06,08,15,28,3.90
2008,06,08,15,29,9.00
2008,06,08,15,30,2.90
2008,06,08,15,31,4.20
2008,06,08,15,32,5.50
2008,06,08,15,33,5.30
2008,06,08,15,34,7.40
2008,06,08,15,35,9.60
2008,06,08,15,36,5.10
2008,06,08,15,37,4.40
2008,06,08,15,38,3.20
2008,06,08,15,39,7.60
2008,06,08,15,40,14.20
2008,06,08,15,41,11.30
2008,06,08,15,42,10.60
2008,06,08,15,43,9.10
2008,06,08,15,44,5.50
2008,06,08,15,45,7.10
2008,06,08,15,46,5.00
2008,06,08,15,47,6.60
2008,06,08,15,48,8.70
2008,06,08,15,49,7.00
2008,06,08,15,50,6.70
2008,06,08,15,51,9.80
2008,06,08,15,52,4.90
2008,06,08,15,53,7.60
2008,06,08,15,54,9.20
2008,06,08,15,55,6.30
2008,06,08,15,56,3.50
2008,06,08,15,57,2.90
2008,06,08,15,58,5.40
2008,06,08,15,59,6.50
2008,06,08,16,00,6.40
2008,06,08,16,01,2.90
2008,06,08,16,02,4.40
2008,06,08,16,03,3.90
2008,06,08,16,04,6.30
2008,06,08,16,05,6.50
2008,06,08,16,06,8.10
2008,06,08,16,07,8.90
2008,06,08,16,08,7.90
2008,06,08,16,09,3.70
2008,06,08,16,10,5.80
2008,06,08,16,11,8.00
2008,06,08,16,12,8.30
2008,06,08,16,13,10.60
2008,06,08,16,14,5.50
2008,06,08,16,15,6.50
2008,06,08,16,16,4.70
2008,06,08,16,17,7.20
2008,06,08,16,18,6.30
2008,06,08,16,19,9.00
2008,06,08,16,20,12.70
2008,06,08,16,21,11.70
2008,06,08,16,22,8.20
2008,06,08,16,23,16.80
2008,06,08,16,24,15.30
2008,06,08,16,25,15.00
2008,06,08,16,26,12.10
2008,06,08,16,27,13.80
2008,06,08,16,28,16.00
2008,06,08,16,29,10.20
2008,06,08,16,30,12.00
2008,06,08,16,31,11.30
2008,06,08,16,32,8.10
2008,06,08,16,33,7.00
2008,06,08,16,34,3.60
2008,06,08,16,35,2.70
2008,06,08,16,36,10.00
2008,06,08,16,37,10.40
2008,06,08,16,38,8.00
2008,06,08,16,39,8.50
2008,06,08,16,40,13.10
2008,06,08,16,41,11.70
2008,06,08,16,42,7.90
2008,06,08,16,43,10.90
2008,06,08,16,44,10.50
2008,06,08,16,45,6.40
2008,06,08,16,46,8.00
2008,06,08,16,47,9.00
2008,06,08,16,48,7.70
2008,06,08,16,49,6.60
2008,06,08,16,50,7.20
2008,06,08,16,51,7.20
2008,06,08,16,52,10.90
2008,06,08,16,53,9.70
2008,06,08,16,54,8.70
2008,06,08,16,55,6.30
2008,06,08,16,56,4.50
2008,06,08,16,57,4.70
2008,06,08,16,58,6.60
2008,06,08,16,59,2.60
2008,06,08,17,00,6.60
2008,06,08,17,01,9.50
2008,06,08,17,02,9.60
2008,06,08,17,03,11.20
2008,06,08,17,04,13.40
2008,06,08,17,05,7.20
2008,06,08,17,06,3.20
2008,06,08,17,07,2.10
2008,06,08,17,08,6.50
2008,06,08,17,09,6.00
2008,06,08,17,10,6.10
2008,06,08,17,11,5.50
2008,06,08,17,12,8.40
2008,06,08,17,13,6.30
2008,06,08,17,14,8.50
2008,06,08,17,15,5.60
2008,06,08,17,16,17.50
2008,06,08,17,17,10.80
2008,06,08,17,18,10.60
2008,06,08,17,19,9.60
2008,06,08,17,20,7.00
2008,06,08,17,21,12.70
2008,06,08,17,22,11.90
2008,06,08,17,23,15.30
2008,06,08,17,24,9.90
2008,06,08,17,25,10.00
2008,06,08,17,26,5.60
2008,06,08,17,27,5.90
2008,06,08,17,28,3.90
2008,06,08,17,29,6.00
2008,06,08,17,30,3.80
2008,06,08,17,31,4.50
2008,06,08,17,32,6.00
2008,06,08,17,33,9.20
2008,06,08,17,34,10.90
2008,06,08,17,35,13.70
2008,06,08,17,36,8.50
2008,06,08,17,37,8.30
2008,06,08,17,38,7.60
2008,06,08,17,39,6.90
2008,06,08,17,40,6.50
2008,06,08,17,41,14.60
2008,06,08,17,42,8.60
2008,06,08,17,43,8.90
2008,06,08,17,44,12.30
2008,06,08,17,45,9.90
2008,06,08,17,46,9.60
2008,06,08,17,47,13.90
2008,06,08,17,48,9.60
2008,06,08,17,49,4.60
2008,06,08,17,50,5.10
2008,06,08,17,51,8.60
2008,06,08,17,52,16.70
2008,06,08,17,53,16.30
2008,06,08,17,54,9.30
2008,06,08,17,55,9.60
2008,06,08,17,56,13.70
2008,06,08,17,57,9.10
2008,06,08,17,58,12.70
2008,06,08,17,59,11.60
2008,06,08,18,00,11.00
2008,06,08,18,01,7.20
2008,06,08,18,02,11.80
2008,06,08,18,03,13.70
2008,06,08,18,04,10.40
2008,06,08,18,05,6.80
2008,06,08,18,06,9.90
2008,06,08,18,07,9.30
2008,06,08,18,08,6.50
2008,06,08,18,09,4.90
2008,06,08,18,10,10.20
2008,06,08,18,11,11.90
2008,06,08,18,12,11.30
2008,06,08,18,13,8.40
2008,06,08,18,14,9.40
2008,06,08,18,15,9.80
2008,06,08,18,16,13.30
2008,06,08,18,17,10.70
2008,06,08,18,18,10.40
2008,06,08,18,19,8.50
2008,06,08,18,20,5.40
2008,06,08,18,21,5.70
2008,06,08,18,22,8.10
2008,06,08,18,23,11.70
2008,06,08,18,24,8.80
2008,06,08,18,25,4.40
2008,06,08,18,26,4.70
2008,06,08,18,27,6.00
2008,06,08,18,28,5.80
2008,06,08,18,29,3.30
2008,06,08,18,30,2.40
2008,06,08,18,31,2.70
2008,06,08,18,32,6.30
2008,06,08,18,33,7.20
2008,06,08,18,34,7.60
2008,06,08,18,35,9.50
2008,06,08,18,36,3.30
2008,06,08,18,37,4.70
2008,06,08,18,38,3.60
2008,06,08,18,39,10.00
2008,06,08,18,40,10.50
2008,06,08,18,41,13.20
2008,06,08,18,42,8.30
2008,06,08,18,43,8.60
2008,06,08,18,44,6.10
2008,06,08,18,45,8.40
2008,06,08,18,46,8.80
2008,06,08,18,47,11.40
2008,06,08,18,48,9.60
2008,06,08,18,49,3.50
2008,06,08,18,50,7.60
2008,06,08,18,51,14.20
2008,06,08,18,52,9.30
2008,06,08,18,53,5.40
2008,06,08,18,54,3.10
2008,06,08,18,55,2.90
2008,06,08,18,56,3.10
2008,06,08,18,57,4.90
2008,06,08,18,58,4.30
2008,06,08,18,59,2.90
2008,06,08,19,00,3.00
2008,06,08,19,01,2.80
2008,06,08,19,02,6.40
2008,06,08,19,03,6.80
2008,06,08,19,04,4.30
2008,06,08,19,05,2.80
2008,06,08,19,06,6.80
2008,06,08,19,07,3.80
2008,06,08,19,08,6.30
2008,06,08,19,09,7.70
2008,06,08,19,10,5.00
2008,06,08,19,11,4.40
2008,06,08,19,12,5.80
2008,06,08,19,13,4.20
2008,06,08,19,14,4.00
2008,06,08,19,15,5.20
2008,06,08,19,16,1.10
2008,06,08,19,17,2.20
2008,06,08,19,18,3.90
2008,06,08,19,19,6.70
2008,06,08,19,20,6.10
2008,06,08,19,21,5.80
2008,06,08,19,22,5.90
2008,06,08,19,23,4.30
2008,06,08,19,24,4.20
2008,06,08,19,25,5.40
2008,06,08,19,26,2.70
2008,06,08,19,27,3.30
2008,06,08,19,28,4.80
2008,06,08,19,29,6.40
2008,06,08,19,30,4.30
2008,06,08,19,31,1.90
2008,06,08,19,32,2.90
2008,06,08,19,33,2.80
2008,06,08,19,34,3.70
2008,06,08,19,35,3.80
2008,06,08,19,36,7.90
2008,06,08,19,37,9.20
2008,06,08,19,38,5.80
2008,06,08,19,39,1.80
2008,06,08,19,40,3.30
2008,06,08,19,41,4.70
2008,06,08,19,42,5.30
2008,06,08,19,43,3.50
2008,06,08,19,44,3.60
2008,06,08,19,45,1.30
2008,06,08,19,46,2.70
2008,06,08,19,47,4.80
2008,06,08,19,48,1.90
2008,06,08,19,49,2.00
2008,06,08,19,50,4.80
2008,06,08,19,51,6.40
2008,06,08,19,52,3.90
2008,06,08,19,53,1.20
2008,06,08,19,54,3.20
2008,06,08,19,55,3.40
2008,06,08,19,56,3.40
2008,06,08,19,57,2.50
2008,06,08,19,58,4.60
2008,06,08,19,59,3.00
2008,06,08,20,00,5.00
2008,06,08,20,01,4.30
2008,06,08,20,02,1.60
2008,06,08,20,03,2.20
2008,06,08,20,04,1.80
2008,06,08,20,05,1.90
2008,06,08,20,06,4.60
2008,06,08,20,07,4.30
2008,06,08,20,08,9.50
2008,06,08,20,09,2.80
2008,06,08,20,10,5.90
2008,06,08,20,11,2.10
2008,06,08,20,12,3.80
2008,06,08,20,13,5.40
2008,06,08,20,14,9.50
2008,06,08,20,15,8.40
2008,06,08,20,16,2.60
2008,06,08,20,17,4.40
2008,06,08,20,18,5.10
2008,06,08,20,19,2.90
2008,06,08,20,20,5.10
2008,06,08,20,21,6.30
2008,06,08,20,22,6.70
2008,06,08,20,23,3.10
2008,06,08,20,24,4.50
2008,06,08,20,25,6.60
2008,06,08,20,26,4.60
2008,06,08,20,27,4.70
2008,06,08,20,28,6.70
2008,06,08,20,29,6.10
2008,06,08,20,30,3.90
2008,06,08,20,31,9.10
2008,06,08,20,32,6.40
2008,06,08,20,33,4.10
2008,06,08,20,34,3.00
2008,06,08,20,35,6.40
2008,06,08,20,36,5.10
2008,06,08,20,37,3.90
2008,06,08,20,38,2.10
2008,06,08,20,39,6.80
2008,06,08,20,40,6.10
2008,06,08,20,41,4.90
2008,06,08,20,42,6.70
2008,06,08,20,43,10.20
2008,06,08,20,44,9.10
2008,06,08,20,45,5.50
2008,06,08,20,46,10.40
2008,06,08,20,47,5.20
2008,06,08,20,48,5.50
2008,06,08,20,49,5.10
2008,06,08,20,50,6.30
2008,06,08,20,51,4.70
2008,06,08,20,52,3.50
2008,06,08,20,53,3.00
2008,06,08,20,54,3.50
2008,06,08,20,55,3.20
2008,06,08,20,56,4.70
2008,06,08,20,57,4.40
2008,06,08,20,58,4.20
2008,06,08,20,59,3.80
2008,06,08,21,00,2.10
2008,06,08,21,01,2.00
2008,06,08,21,02,3.80
2008,06,08,21,03,3.00
2008,06,08,21,04,5.50
2008,06,08,21,05,6.40
2008,06,08,21,06,6.40
2008,06,08,21,07,4.10
2008,06,08,21,08,4.60
2008,06,08,21,09,2.60
2008,06,08,21,10,3.00
2008,06,08,21,11,3.40
2008,06,08,21,12,3.50
2008,06,08,21,13,4.50
2008,06,08,21,14,2.30
2008,06,08,21,15,1.70
2008,06,08,21,16,0.70
2008,06,08,21,17,0.40
2008,06,08,21,18,0.00
2008,06,08,21,19,0.40
2008,06,08,21,20,0.40
2008,06,08,21,21,0.00
2008,06,08,21,22,0.00
2008,06,08,21,23,0.20
2008,06,08,21,24,0.00
2008,06,08,21,25,0.80
2008,06,08,21,26,1.40
2008,06,08,21,27,1.70
2008,06,08,21,28,0.00
2008,06,08,21,29,0.00
2008,06,08,21,30,0.00
2008,06,08,21,31,0.00
2008,06,08,21,32,0.30
2008,06,08,21,33,1.70
2008,06,08,21,34,0.10
2008,06,08,21,35,0.30
2008,06,08,21,36,1.10
2008,06,08,21,37,0.70
2008,06,08,21,38,1.60
2008,06,08,21,39,0.10
2008,06,08,21,40,0.40
2008,06,08,21,41,0.20
2008,06,08,21,42,0.00
2008,06,08,21,43,0.60
2008,06,08,21,44,0.30
2008,06,08,21,45,0.00
2008,06,08,21,46,0.00
2008,06,08,21,47,0.00
2008,06,08,21,48,0.10
2008,06,08,21,49,0.00
2008,06,08,21,50,0.50
2008,06,08,21,51,0.30
2008,06,08,21,52,0.00
2008,06,08,21,53,0.10
2008,06,08,21,54,0.00
2008,06,08,21,55,0.00
2008,06,08,21,56,0.00
2008,06,08,21,57,0.00
2008,06,08,21,58,0.00
2008,06,08,21,59,0.20
2008,06,08,22,00,0.70
2008,06,08,22,01,0.10
2008,06,08,22,02,0.00
2008,06,08,22,03,0.00
2008,06,08,22,04,0.00
2008,06,08,22,05,0.00
2008,06,08,22,06,0.10
2008,06,08,22,07,0.00
2008,06,08,22,08,0.00
2008,06,08,22,09,0.00
2008,06,08,22,10,0.20
2008,06,08,22,11,0.00
2008,06,08,22,12,0.00
2008,06,08,22,13,0.00
2008,06,08,22,14,0.00
2008,06,08,22,15,0.00
2008,06,08,22,16,0.00
2008,06,08,22,17,0.00
2008,06,08,22,18,0.10
2008,06,08,22,19,0.30
2008,06,08,22,20,0.00
2008,06,08,22,21,0.10
2008,06,08,22,22,0.00
2008,06,08,22,23,0.00
2008,06,08,22,24,0.00
2008,06,08,22,25,1.30
2008,06,08,22,26,0.00
2008,06,08,22,27,0.00
2008,06,08,22,28,0.00
2008,06,08,22,29,0.00
2008,06,08,22,30,0.00
2008,06,08,22,31,0.00
2008,06,08,22,32,0.00
2008,06,08,22,33,0.00
2008,06,08,22,34,0.00
2008,06,08,22,35,0.00
2008,06,08,22,36,0.00
2008,06,08,22,37,0.00
2008,06,08,22,38,0.00
2008,06,08,22,39,0.00
2008,06,08,22,40,0.00
2008,06,08,22,41,0.00
2008,06,08,22,42,0.00
2008,06,08,22,43,0.00
2008,06,08,22,44,0.00
2008,06,08,22,45,0.00
2008,06,08,22,46,0.00
2008,06,08,22,47,0.00
2008,06,08,22,48,0.00
2008,06,08,22,49,0.00
2008,06,08,22,50,0.00
2008,06,08,22,51,0.00
2008,06,08,22,52,0.60
2008,06,08,22,53,0.00
2008,06,08,22,54,0.00
2008,06,08,22,55,0.00
2008,06,08,22,56,0.00
2008,06,08,22,57,0.00
2008,06,08,22,58,0.00
2008,06,08,22,59,0.00
2008,06,08,23,00,0.10
2008,06,08,23,01,2.10
2008,06,08,23,02,1.10
2008,06,08,23,03,1.90
2008,06,08,23,04,1.50
2008,06,08,23,05,1.20
2008,06,08,23,06,0.00
2008,06,08,23,07,0.10
2008,06,08,23,08,0.50
2008,06,08,23,09,1.30
2008,06,08,23,10,0.00
2008,06,08,23,11,0.90
2008,06,08,23,12,0.00
2008,06,08,23,13,0.40
2008,06,08,23,14,0.00
2008,06,08,23,15,0.00
2008,06,08,23,16,0.10
2008,06,08,23,17,0.00
2008,06,08,23,18,0.00
2008,06,08,23,19,0.00
2008,06,08,23,20,0.00
2008,06,08,23,21,0.00
2008,06,08,23,22,0.00
2008,06,08,23,23,0.00
2008,06,08,23,24,0.00
2008,06,08,23,25,0.00
2008,06,08,23,26,0.00
2008,06,08,23,27,0.00
2008,06,08,23,28,0.00
2008,06,08,23,29,0.00
2008,06,08,23,30,0.00
2008,06,08,23,31,0.00
2008,06,08,23,32,0.00
2008,06,08,23,33,0.10
2008,06,08,23,34,0.00
2008,06,08,23,35,0.00
2008,06,08,23,36,0.10
2008,06,08,23,37,0.30
2008,06,08,23,38,0.00
2008,06,08,23,39,0.00
2008,06,08,23,40,0.00
2008,06,08,23,41,0.00